7 * 24
多渠道服务支持
STARLINK-11427是美国太空探索技术公司Starlink星链互联网卫星星座的一员,于2024年11月24日发射入轨。星链项目旨在构建全球卫星互联网网络,为全球偏远地区等提供高速互联网接入服务,该卫星加入后,进一步扩充了星链低轨卫星星座的规模,提升星座服务覆盖与容量。
美国
(US)
| 数据来源 | 国际轨道数据 |
| 星历时间: | 2026-09-10T19:24:18+0800 21小时前 查看轨道信息 |
| 半长轴: | 6737.538km |
| 偏心率: | 0.0000883 |
| 轨道倾角: | 53.158° |
| 近地点辐角 | 98.010° |
| 升交点赤经 | 240.518° |
| 平近点角 | 262.102° |
| 近地点: | 358.806km |
| 远地点: | 359.996km |
| 周期: | 91.730分钟 |
| 每日圈数: | 15.69824 |